Find OneWeb SL0050

NORAD ID: 45453 Int'l Des: 2020-020 Owner: ONEWEB Country: UK Constellation: oneweb operational
LEOCIRCULARPOLAR

Current View

Loading 3D Globe...

About OneWeb SL0050

Description loading...

Upcoming Passes

Passes for default location (London). Set your location on the main map for personalized predictions.

Altitude History

Loading altitude history...

Two-Line Element Set

1 45453U 20020AF 26149.74496352 .00002789 00000-0 28516-3 0 9998
2 45453 88.9304 235.7130 0005567 64.8102 295.3704 14.90287153337632
Epoch: May 29, 2026 • Age: 21 hours

Current Status

Altitude 628.9 km
Velocity 7.54 km/s
Sub-Earth Point -80.12°S, 42.11°W
Launch Date Mar 21, 2020
Age 6.1 years
Type internet

Technical Details

Classification Payload
Mass 148.00 kg
Dry Mass 140.00 kg
Total Mass 148.00 kg
Length 1.30 m
Diameter 1.00 m
Span 5.00 m
Shape Trapezoid+2 pan
Manufacturer ONEWUS
Bus Type ARROW
Phase Status In Orbit
Owner/State ONEWEB/UK

Most Searched